EN

Hourly Weather Oungre

Today, 18 April, Sunday

Time Temperature Precipitation Wind Pressure Humidity
00:00 +5°C° 0 mm 5 mps 704 mmHg 84%
01:00 +3°C° 0 mm 5 mps 705 mmHg 88%
02:00 +2°C° 0 mm 6 mps 705 mmHg 93%
03:00 +2°C° 0 mm 6 mps 706 mmHg 93%
04:00 +1°C° 0 mm 6 mps 706 mmHg 94%
05:00 0°C° 0 mm 5 mps 707 mmHg 94%
06:00 -1°C° 0.1 mm 6 mps 707 mmHg 88%
07:00 -1°C° 0.1 mm 6 mps 707 mmHg 83%
08:00 -1°C° 0.1 mm 6 mps 708 mmHg 77%
09:00 -1°C° 0 mm 6 mps 708 mmHg 71%
10:00 -1°C° 0 mm 6 mps 709 mmHg 65%
11:00 -1°C° 0 mm 7 mps 709 mmHg 58%
12:00 +1°C° 0 mm 6 mps 709 mmHg 54%
13:00 +1°C° 0 mm 6 mps 709 mmHg 51%
14:00 +2°C° 0 mm 6 mps 710 mmHg 47%
15:00 +1°C° 0 mm 6 mps 710 mmHg 45%
16:00 0°C° 0 mm 7 mps 710 mmHg 44%
17:00 0°C° 0 mm 7 mps 710 mmHg 43%
18:00 -1°C° 0 mm 6 mps 710 mmHg 47%
19:00 -1°C° 0 mm 6 mps 710 mmHg 51%
20:00 -1°C° 0 mm 5 mps 711 mmHg 55%
21:00 -2°C° 0 mm 4 mps 711 mmHg 58%
22:00 -2°C° 0 mm 3 mps 711 mmHg 62%
23:00 -2°C° 0 mm 2 mps 711 mmHg 66%

Tomorrow, 19 April, Monday

Time Temperature Precipitation Wind Pressure Humidity
00:00 -3°C° 0 mm 2 mps 711 mmHg 66%
01:00 -3°C° 0 mm 2 mps 711 mmHg 67%
02:00 -3°C° 0 mm 2 mps 711 mmHg 67%
03:00 -3°C° 0 mm 2 mps 711 mmHg 66%
04:00 -3°C° 0 mm 2 mps 711 mmHg 66%
05:00 -3°C° 0 mm 2 mps 711 mmHg 65%
06:00 -4°C° 0 mm 3 mps 711 mmHg 63%
07:00 -2°C° 0 mm 3 mps 711 mmHg 61%
08:00 -2°C° 0 mm 4 mps 711 mmHg 59%
09:00 -1°C° 0.1 mm 5 mps 711 mmHg 53%
10:00 0°C° 0.1 mm 5 mps 710 mmHg 46%
11:00 -1°C° 0.1 mm 6 mps 710 mmHg 39%
12:00 +1°C° 0 mm 6 mps 710 mmHg 38%
13:00 +1°C° 0 mm 6 mps 710 mmHg 37%
14:00 +1°C° 0 mm 6 mps 709 mmHg 35%
15:00 +1°C° 0 mm 5 mps 709 mmHg 38%
16:00 +1°C° 0 mm 5 mps 709 mmHg 40%
17:00 +1°C° 0 mm 4 mps 708 mmHg 42%
18:00 0°C° 0.2 mm 5 mps 709 mmHg 56%
19:00 -1°C° 0.2 mm 5 mps 709 mmHg 70%
20:00 -2°C° 0.2 mm 5 mps 709 mmHg 84%
21:00 -4°C° 0.1 mm 5 mps 709 mmHg 81%
22:00 -3°C° 0.1 mm 4 mps 709 mmHg 77%
23:00 -2°C° 0.1 mm 3 mps 709 mmHg 74%

Day after tomorrow, 20 April, Tuesday

Time Temperature Precipitation Wind Pressure Humidity
00:00 -4°C° 0 mm 3 mps 709 mmHg 74%
01:00 -4°C° 0 mm 3 mps 709 mmHg 75%
02:00 -4°C° 0 mm 3 mps 710 mmHg 76%
03:00 -4°C° 0 mm 3 mps 710 mmHg 75%
04:00 -5°C° 0 mm 3 mps 710 mmHg 75%
05:00 -5°C° 0 mm 3 mps 710 mmHg 74%
06:00 -4°C° 0 mm 4 mps 710 mmHg 66%
07:00 -3°C° 0 mm 4 mps 710 mmHg 59%
08:00 -3°C° 0 mm 4 mps 711 mmHg 51%
09:00 -2°C° 0.1 mm 4 mps 711 mmHg 48%
10:00 -1°C° 0.1 mm 4 mps 711 mmHg 44%
11:00 -1°C° 0.1 mm 4 mps 711 mmHg 40%
12:00 0°C° 0 mm 4 mps 711 mmHg 40%
13:00 0°C° 0 mm 4 mps 711 mmHg 40%
14:00 0°C° 0 mm 4 mps 711 mmHg 39%
15:00 0°C° 0 mm 4 mps 711 mmHg 40%
16:00 0°C° 0 mm 4 mps 711 mmHg 40%
17:00 0°C° 0 mm 4 mps 711 mmHg 40%
18:00 0°C° 0 mm 3 mps 711 mmHg 45%
19:00 -1°C° 0 mm 3 mps 711 mmHg 50%
20:00 -2°C° 0 mm 2 mps 711 mmHg 55%
21:00 -2°C° 0 mm 2 mps 711 mmHg 56%
22:00 0°C° 0 mm 1 mps 711 mmHg 57%
23:00 -1°C° 0 mm 1 mps 711 mmHg 58%

21 April, Wednesday

Time Temperature Precipitation Wind Pressure Humidity
00:00 -1°C° 0 mm 1 mps 711 mmHg 58%
01:00 -1°C° 0 mm 1 mps 711 mmHg 57%
02:00 -1°C° 0 mm 1 mps 711 mmHg 57%
03:00 -1°C° 0 mm 1 mps 711 mmHg 57%
04:00 -3°C° 0 mm 2 mps 711 mmHg 57%
05:00 -3°C° 0 mm 2 mps 711 mmHg 58%
06:00 -2°C° 0 mm 2 mps 711 mmHg 51%
07:00 +1°C° 0 mm 2 mps 711 mmHg 45%
08:00 +2°C° 0 mm 2 mps 711 mmHg 39%
09:00 +2°C° 0 mm 3 mps 711 mmHg 36%
10:00 +3°C° 0 mm 3 mps 711 mmHg 34%
11:00 +5°C° 0 mm 3 mps 711 mmHg 32%
12:00 +7°C° 0 mm 3 mps 710 mmHg 30%
13:00 +8°C° 0 mm 3 mps 710 mmHg 28%
14:00 +9°C° 0 mm 3 mps 709 mmHg 27%
15:00 +9°C° 0 mm 3 mps 709 mmHg 26%
16:00 +8°C° 0 mm 4 mps 708 mmHg 26%
17:00 +8°C° 0 mm 4 mps 708 mmHg 25%
18:00 +7°C° 0 mm 4 mps 707 mmHg 29%
19:00 +6°C° 0 mm 4 mps 707 mmHg 34%
20:00 +4°C° 0 mm 3 mps 707 mmHg 38%
21:00 +4°C° 0 mm 4 mps 706 mmHg 39%
22:00 +3°C° 0 mm 4 mps 706 mmHg 40%
23:00 +3°C° 0 mm 4 mps 706 mmHg 42%

22 April, Thursday

Time Temperature Precipitation Wind Pressure Humidity
00:00 +1°C° 0 mm 4 mps 705 mmHg 43%
01:00 +1°C° 0 mm 4 mps 705 mmHg 45%
02:00 0°C° 0 mm 4 mps 705 mmHg 46%
03:00 0°C° 0 mm 4 mps 704 mmHg 46%
04:00 0°C° 0 mm 4 mps 704 mmHg 47%
05:00 -1°C° 0 mm 5 mps 703 mmHg 47%
06:00 +1°C° 0 mm 5 mps 703 mmHg 43%
07:00 +3°C° 0 mm 5 mps 703 mmHg 39%
08:00 +5°C° 0 mm 6 mps 703 mmHg 35%
09:00 +8°C° 0 mm 6 mps 702 mmHg 32%
10:00 +10°C° 0 mm 6 mps 702 mmHg 29%
11:00 +13°C° 0 mm 6 mps 701 mmHg 26%
12:00 +14°C° 0 mm 6 mps 700 mmHg 23%
13:00 +15°C° 0 mm 6 mps 700 mmHg 21%
14:00 +15°C° 0 mm 6 mps 699 mmHg 19%
15:00 +15°C° 0 mm 5 mps 699 mmHg 21%
16:00 +15°C° 0 mm 5 mps 699 mmHg 22%
17:00 +15°C° 0 mm 4 mps 698 mmHg 23%
18:00 +13°C° 0 mm 5 mps 699 mmHg 39%
19:00 +9°C° 0 mm 7 mps 699 mmHg 54%
20:00 +6°C° 0 mm 8 mps 700 mmHg 70%
21:00 +4°C° 0 mm 8 mps 701 mmHg 74%
22:00 +2°C° 0 mm 8 mps 701 mmHg 79%
23:00 0°C° 0 mm 8 mps 702 mmHg 83%

23 April, Friday

Time Temperature Precipitation Wind Pressure Humidity
00:00 0°C° 0 mm 8 mps 702 mmHg 79%
01:00 -1°C° 0 mm 7 mps 703 mmHg 75%
02:00 -2°C° 0 mm 7 mps 703 mmHg 72%
03:00 -2°C° 0 mm 6 mps 704 mmHg 71%
04:00 -3°C° 0 mm 6 mps 705 mmHg 71%
05:00 -3°C° 0 mm 6 mps 706 mmHg 70%
06:00 -3°C° 0 mm 6 mps 706 mmHg 64%
07:00 -2°C° 0 mm 7 mps 707 mmHg 58%
08:00 -2°C° 0 mm 7 mps 707 mmHg 52%
09:00 -1°C° 0 mm 7 mps 708 mmHg 45%
10:00 0°C° 0 mm 7 mps 708 mmHg 39%
11:00 +2°C° 0 mm 7 mps 708 mmHg 32%
12:00 +2°C° 0 mm 7 mps 708 mmHg 32%
13:00 +3°C° 0 mm 7 mps 708 mmHg 32%
14:00 +3°C° 0 mm 7 mps 708 mmHg 32%
15:00 +3°C° 0 mm 7 mps 708 mmHg 31%
16:00 +3°C° 0 mm 7 mps 708 mmHg 29%
17:00 +3°C° 0 mm 7 mps 708 mmHg 28%
18:00 +2°C° 0 mm 5 mps 708 mmHg 32%
19:00 +1°C° 0 mm 4 mps 708 mmHg 36%
20:00 +2°C° 0 mm 2 mps 709 mmHg 40%
21:00 +2°C° 0 mm 2 mps 709 mmHg 42%
22:00 +1°C° 0 mm 2 mps 709 mmHg 44%
23:00 +2°C° 0 mm 1 mps 709 mmHg 46%
Show more

We Need Your Consent

Meteoprog and our Service Providers may store and access personal data such as cookies, device identifiers or other similar technologies on your device and process such data to personalise content and ads, as well as provide social media features and to analyse the traffic.

  • Store and/or access information on your device

    Cookies, device identifiers or other information can be stored or accessed on your device for the purposes indicated above.

  • Personalised ads and content, ad and content measurement, audience insights, and products development

    Ads and content can be personalised based on a profile. More data can be added to better personalise ads and content. Ad and content performance can be measured. Insights about the audience who saw the ads and content can be derived. Such data can be used to develop or improve user’s experience, systems and software.

By clicking ‘I Agree’ you will allow the use of indicated cookies, device identifiers, web beacons or other similar technologies. Your settings can be changed in the browser on your device.

For certain purposes, legitimate interests may be relied on, rather than consent. You can read more about this in our Privacy and Cookie Policy.